TimeEDT,TemperatureF,Dew PointF,Humidity,Sea Level PressureIn,VisibilityMPH,Wind Direction,Wind SpeedMPH,Gust SpeedMPH,PrecipitationIn,Events,Conditions,WindDirDegrees,DateUTC
12:54 AM,28.9,10.0,45,29.93,10.0,WNW,12.7,18.4,0.00,,Mostly Cloudy,290,2013-04-03 04:54:00
1:54 AM,28.0,7.0,41,29.94,10.0,West,16.1,27.6,N/A,,Overcast,280,2013-04-03 05:54:00
2:54 AM,27.0,6.1,41,29.94,10.0,West,10.4,17.3,N/A,,Clear,280,2013-04-03 06:54:00
3:54 AM,26.1,7.0,44,29.94,10.0,West,8.1,16.1,N/A,,Clear,270,2013-04-03 07:54:00
4:54 AM,26.1,7.0,44,29.94,10.0,WSW,6.9,-,N/A,,Partly Cloudy,250,2013-04-03 08:54:00
5:54 AM,25.0,7.0,46,29.95,10.0,WSW,4.6,-,N/A,,Partly Cloudy,240,2013-04-03 09:54:00
6:54 AM,26.1,7.0,44,29.97,10.0,West,8.1,17.3,N/A,,Partly Cloudy,280,2013-04-03 10:54:00
7:54 AM,28.0,7.0,41,29.99,10.0,West,13.8,26.5,N/A,,Clear,270,2013-04-03 11:54:00
8:54 AM,28.9,8.1,41,29.99,10.0,West,11.5,33.4,N/A,,Partly Cloudy,280,2013-04-03 12:54:00
9:54 AM,30.9,7.0,37,29.99,10.0,West,16.1,26.5,N/A,,Clear,260,2013-04-03 13:54:00
10:54 AM,34.0,5.0,30,29.99,10.0,West,15.0,34.5,N/A,,Clear,280,2013-04-03 14:54:00
11:54 AM,35.1,3.9,27,30.00,10.0,WNW,9.2,23.0,N/A,,Clear,300,2013-04-03 15:54:00
12:54 PM,37.0,1.9,23,29.99,10.0,WNW,16.1,27.6,N/A,,Clear,300,2013-04-03 16:54:00
1:54 PM,39.9,3.9,22,29.98,10.0,WNW,10.4,26.5,N/A,,Clear,300,2013-04-03 17:54:00
2:54 PM,39.9,3.0,21,29.98,10.0,West,19.6,28.8,N/A,,Clear,280,2013-04-03 18:54:00
3:54 PM,41.0,3.9,21,29.98,10.0,West,18.4,28.8,N/A,,Clear,260,2013-04-03 19:54:00
4:54 PM,39.9,3.0,21,29.99,10.0,West,19.6,28.8,N/A,,Clear,270,2013-04-03 20:54:00
5:54 PM,39.0,3.9,23,30.02,10.0,WNW,17.3,29.9,N/A,,Clear,290,2013-04-03 21:54:00
6:54 PM,37.0,5.0,26,30.06,10.0,WNW,16.1,28.8,N/A,,Clear,290,2013-04-03 22:54:00
7:54 PM,34.0,9.0,35,30.10,10.0,NW,11.5,25.3,N/A,,Clear,310,2013-04-03 23:54:00
8:54 PM,33.1,10.0,38,30.14,10.0,WNW,11.5,20.7,N/A,,Clear,300,2013-04-04 00:54:00
9:54 PM,32.0,10.0,40,30.17,10.0,WNW,6.9,-,N/A,,Clear,300,2013-04-04 01:54:00
10:54 PM,32.0,10.0,40,30.17,10.0,NW,4.6,17.3,N/A,,Clear,310,2013-04-04 02:54:00
11:54 PM,32.0,10.0,40,30.19,10.0,West,10.4,16.1,N/A,,Clear,280,2013-04-04 03:54:00